www.pogodaiklimat.ru

Погода и климат >> Архив погоды >> Гана >> Kete-Krachi


ПОГОДА в Kete-Krachi

  • Прогноз погоды в Kete-Krachi
  • Монитор погоды в Kete-Krachi
  • Климат города

АРХИВ ПОГОДЫ в Kete-Krachi

Время (UTC), дата Ветер
(напр.,м/с)
 
Видим.   Явления Облачность Т
(С)
Тd
(С)
f
(%)
Тe
(С)
Тes
(С)
Комфортность P
(гПа)
Po
(гПа)
Тmin
(С)
Tmax
(С)
R
(мм)
R24
(мм)
S
(см)
06 15.05 штиль 0 22 км 9/4 360 м
[Sc Ac trans]
+25.7 +22.6 83 +34 +34 очень
душно
1011.7 1012.0 +24.7 6
12 15.05 ЮЗ 2 24 км 9/5 480 м
[Cu med, cong Ac trans]
+31.0 +25.4 72 +45 +51 опасность
перегрева
1011.5 1012.0
18 15.05 штиль 0 24 км 5/3 420 м
[Cb cap Ac trans Ci sp]
+31.5 +22.5 59 +41 +41 опасность
перегрева
1008.2 1008.0 +33.2
12 16.05 ЮЗ 2 25 км 8/5 500 м
[Cu med, cong Ac trans Cs]
+30.8 +25.0 71 +44 +52 опасность
перегрева
1011.7 1012.0
18 16.05 штиль 0 25 км 9/3 500 м
[Cb cap Ac trans]
+32.4 +25.9 69 +48 +48 опасность
перегрева
1008.4 1008.0 +33.5
21 16.05 штиль 0 18 км зарница 9/5 400 м
[Cb cap Ac trans]
+29.2 +25.9 82 +44 +44 опасность
перегрева
1011.2 1011.0
06 17.05 штиль 0 22 км 9/3 360 м
[Sc Ac trans]
+25.5 +23.0 86 +34 +34 очень
душно
1011.1 1011.0 +24.8
09 17.05 ЮЗ 2 25 км 9/6 400 м
[Cu Sc Ac trans Cs]
+28.5 +24.4 79 +40 +43 очень
душно
1013.9 1014.0
15 17.05 СЗ 1 15 км {дождь} 9/5 400 м
[Cu Sc Ac As]
+24.6 +22.4 88 +32 +35 очень
душно
1011.5 1012.0
18 17.05 штиль 0 15 км {дождь} 9/0
[Ac trans]
+25.0 +22.8 88 +33 +33 очень
душно
1010.4 1010.0 +28.6 3
21 17.05 штиль 0 12 км 9/0
[Ac trans]
+24.5 +23.1 92 +33 +33 очень
душно
1011.1 1011.0
03 18.05 штиль 0 10 км 6/3 400 м
[Sc Ac trans]
+23.0 +22.3 96 +31 +31 очень
душно
1011.1 1011.0
06 18.05 штиль 0 22 км 9/0
[Ac trans]
+22.5 +21.6 95 +30 +30 очень
душно
1012.0 1012.0 +21.8 3
15 18.05 ЮЗ 2 25 км 6/3 500 м
[Cu med, cong Ci sp]
+32.4 +23.6 60 +44 +51 опасность
перегрева
1009.4 1009.0
18 18.05 штиль 0 20 км 8/4 420 м
[Cb cap Ac trans Ci sp]
+31.5 +25.1 69 +45 +45 опасность
перегрева
1009.6 1010.0 +32.7
21 18.05 штиль 0 18 км 9/3 400 м
[Sc Ac trans]
+29.2 +25.6 81 +43 +43 опасность
перегрева
1011.1 1011.0
00 19.05 штиль 0 18 км 6/0
[Ac trans Ci sp]
+27.5 +25.5 89 +40 +40 очень
душно
1011.2 1011.0
03 19.05 штиль 0 16 км 9/5 400 м
[Sc Ac trans]
+27.0 +25.0 89 +39 +39 очень
душно
1010.9 1011.0
06 19.05 ЮЗ 2 22 км 9/5 360 м
[Sc Ac trans]
+26.7 +24.4 87 +37 +37 очень
душно
1011.6 1012.0 +26.2
12 19.05 ЮЗ 2 25 км 8/4 480 м
[Cu med, cong Ac trans Ci sp]
+32.6 +25.1 65 +47 +55 опасность
перегрева
1011.3 1011.0
15 19.05 СЗ 1 25 км 6/3 500 м
[Cu med, cong Ci sp]
+34.4 +24.5 56 +47 +55 опасность
перегрева
1009.0 1009.0
18 19.05 СЗ 1 20 км 6/3 500 м
[Cb cap Ac trans Ci sp]
+32.9 +25.6 66 +48 +48 опасность
перегрева
1009.4 1009.0 +34.5
00 20.05 штиль 0 18 км 3/0
[Ci sp]
+27.0 +25.0 89 +39 +39 очень
душно
1011.2 1011.0
03 20.05 штиль 0 18 км 4/0
[Ci sp]
+26.7 +25.1 91 +38 +38 очень
душно
1010.5 1011.0
06 20.05 штиль 0 22 км 9/3 400 м
[Sc Cs]
+26.0 +24.6 92 +37 +37 очень
душно
1011.4 1011.0 +25.6
09 20.05 ЮЗ 1 25 км 6/5 400 м
[Cu Sc Ci sp]
+29.2 +25.0 78 +42 +48 опасность
перегрева
1011.5 1012.0
12 20.05 ЮЗ 4 25 км 6/4 480 м
[Cu med, cong Ci sp]
+32.9 +25.6 66 +48 +56 опасность
перегрева
1010.0 1010.0
15 20.05 ЮЗ 2 25 км 6/4 500 м
[Cb cap Ci sp]
+34.3 +24.8 58 +48 +54 опасность
перегрева
1008.0 1008.0
18 20.05 ЮЗ 2 20 км гроза без осадков 8/4 400 м
[Cb cap Ac trans Ci sp]
+33.2 +25.1 63 +47 +47 опасность
перегрева
1009.0 1009.0 +34.5
21 20.05 СВ 1 16 км в посл. час гроза {дождь} 9/3 400 м
[Sc Ac As]
+25.7 +23.1 86 +34 +34 очень
душно
1010.5 1011.0
00 21.05 штиль 0 18 км {гроза, дождь} 9/0
[Ac trans]
+25.7 +23.6 88 +35 +35 очень
душно
1011.1 1011.0 0.3
03 21.05 СЗ 2 800 м гроза, ливневой дождь 9/9 360 м
[Cb cap]
+21.5 +20.1 92 +27 +27 душно 1012.6 1013.0
06 21.05 штиль 0 20 км в посл. час гроза {дождь} 9/4 400 м
[Sc Ac As]
+22.5 +21.8 96 +30 +30 очень
душно
1011.5 1012.0 +21.0 18
09 21.05 ЮВ 2 25 км 9/4 400 м
[Sc Ac trans Cs]
+27.0 +24.5 86 +38 +42 очень
душно
1012.0 1012.0
12 21.05 ЮЗ 1 25 км 9/6 400 м
[Cu Sc Ac trans Cs]
+30.1 +25.3 76 +44 +51 опасность
перегрева
1010.1 1010.0
15 21.05 ЮВ 1 25 км 8/4 500 м
[Cu med, cong Ac trans Ci sp]
+32.5 +26.4 70 +49 +54 опасность
перегрева
1007.7 1008.0
18 21.05 ЮВ 1 20 км 6/4 400 м
[Cu Sc Ac trans Ci sp]
+30.7 +25.8 75 +46 +46 опасность
перегрева
1009.0 1009.0 +32.5
21 21.05 штиль 0 18 км 9/5 400 м
[Sc Ac trans]
+29.5 +26.2 82 +45 +45 опасность
перегрева
1010.9 1011.0
00 22.05 ЮЗ 1 18 км 8/3 400 м
[Sc Ac trans]
+28.7 +25.8 84 +43 +43 опасность
перегрева
1011.6 1012.0

 

Местоположение метеостанции Kete-Krachi (Гана): широта 7.82 долгота -0.03 высота над уровнем моря 122 м.

В архиве по умолчанию представлена погода в Kete-Krachi за последнюю неделю. Архивные данные за месяц целиком и за предыдущие месяцы, начиная с января 2011 года, Вы можете получить, выбрав интересующий диапазон дат из раскрывающегося списка и нажав кнопку "Ввод!".


*Определитесь, кто Вы:
робот инопланетянин человек

Внимание! Время в таблицах - всемирное. Для получения местного времени необходимо прибавить поправку, которая в Kete-Krachi равна 1 ч.

Смотрите также архив погоды в соседних городах и на ближайших метеорологических станциях:

Погода в Atakpame (Того) (130 км)
Погода в Ho (Гана) (146 км)
Погода в Abetifi (Гана) (151 км)
Погода в Yendi (Гана) (181 км)
Погода в Sokode (Того) (183 км)
Погода в Akuse (Гана) (192 км)
Погода в Koforidua (Гана) (195 км)
Погода в Tamale (Гана) (207 км)
Погода в Akatsi (Гана) (210 км)
Погода в Kumasi (Гана) (212 км)

Пояснения к столбцам:

Ветер - указаны скорость ветра в м/с - средняя за 10 мин, порывы в срок и между сроками (в фигурных скобках) и направление, откуда дует ветер: С - северный, СВ - северо-восточный, В - восточный, ЮВ - юго-восточный, Ю - южный, ЮЗ - юго-западный, З - западный, СЗ - северо-западный.
Видимость - горизонтальная дальность видимости в метрах или километрах. При видимости от 1 до 10 км при отсутствии осадков обычно наблюдается дымка, при ухудшении видимости до 1 км и менее - туман. В сухую погоду видимость может ухудшаться дымом, пылью или мглою.
Явления - указаны атмосферные явления, наблюдавшиеся в срок или в последний час перед сроком; фигурными скобками обозначены явления, наблюдавшиеся между сроками (за 1-3 часа до срока); квадратными скобками обозначены град или гололедные отложения с указанием их диаметра в мм.
Облачность - указаны через наклонную черту общая и нижняя облачность в баллах и высота нижней границы облаков в метрах; квадратными скобками обозначены формы облаков: Ci - перистые, Cs - перисто-слоистые, Cc - перисто-кучевые, Ac - высококучевые, As - высокослоистые, Sc - слоисто-кучевые, Ns - слоисто-дождевые, Cu - кучевые, Cb - кучево-дождевые. Подробнее классификацию облаков см. в Атласе облаков (PDF).
T - Температура воздуха - температура, измеренная на высоте 2 м над землей.
Td - Температура точки росы - температура, при понижении до которой содержащийся в воздухе водяной пар достигнет насыщения.
f - Относительная влажность воздуха - влажноcть воздуха, измеренная на высоте 2 м над землей.
Te - Эффективная температура - температура, которую ощущает одетый по сезону человек в тени. Характеристика душности погоды. При расчете учитывается влияние влажности воздуха и скорости ветра на теплоощущения человека.
Tes - Эффективная температура на солнце - температура, которую ощущает человек, с поправкой на солнечный нагрев. Характеристика знойности погоды. Зависит от высоты солнца над горизонтом, облачности и скорости ветра. Ночью, в пасмурную погоду, а также при ветре 12 м/с и более поправка равна нулю.
P - Атмосферное давление - приведенное к уровню моря атмосферное давление.
Po - Атмосферное давление - измеренное на уровне метеостанции атмосферное давление.
Tmin - Минимальная температура - минимум температуры воздуха на высоте 2 м над землей.
Tmax - Максимальная температура - максимум температуры воздуха на высоте 2 м над землей.
R - Количество осадков - Количество выпавших осадков за период времени, мм. При наведении курсора мыши на число - период времени, за который выпало указанное количество осадков.
R24 - Количество осадков - Количество выпавших осадков за 24 часа, мм.
S - Снежный покров - Высота снежного покрова, см. При наведении курсора мыши на число - состояние снежного покрова и степень покрытия местности в баллах.